La Crosse, WI

1:46 AM CDT on April 25, 2017 (GMT -0500)
La Crosse Municipal

Weather History for KLSE - May, 2013

Change the Weather History Date:

Monday, May 20, 2013

  Actual Average Record
Temperature  
Mean Temperature 71 °F 61 °F  
Max Temperature 80 °F 72 °F 94 °F (1934)
Min Temperature 62 °F 50 °F 32 °F (1892)
Degree Days  
Heating Degree Days 0 6  
Month to date heating degree days 174 157  
Since 1 July heating degree days 7368 7109  
Cooling Degree Days 6 1  
Month to date cooling degree days 34 18  
Year to date cooling degree days 38 25  
Growing Degree Days 20 (Base 50)    
Moisture  
Dew Point 61 °F    
Average Humidity 68    
Maximum Humidity 87    
Minimum Humidity 48    
Precipitation  
Precipitation 0.42 in 0.12 in 1.46 in (1913)
Month to date precipitation 4.28 2.23  
Year to date precipitation 14.72 9.78  
Snow  
Snow 0.00 in 0.00 in 0.00 in (2002)
Month to date snowfall 0.8 0.1  
Since 1 July snowfall 60.6 43.4  
Snow Depth 0.00 in    
Sea Level Pressure  
Sea Level Pressure 29.61 in    
Wind  
Wind Speed 12 mph (South)    
Max Wind Speed 25 mph    
Max Gust Speed 33 mph    
Visibility 9 miles    
Events Rain , Thunderstorm    
T = Trace of Precipitation, MM = Missing Value Source: NWS Daily Summary

Daily Weather History Graph

Daily Weather History Graph

Search for Another Location

Airport or City:

Trip Planner

Search our weather history database for the weather conditions in past years. The results will help you decide how hot, cold, wet, or windy it might be!

Date:

Astronomy

May. 20, 2013 Rise Set
Actual Time 5:34 AM CDT 8:29 PM CDT
Civil Twilight 5:00 AM CDT 9:03 PM CDT
Nautical Twilight 4:16 AM CDT 9:47 PM CDT
Astronomical Twilight 3:26 AM CDT 10:38 PM CDT
Moon 3:28 PM CDT (5/20) 2:39 AM CDT (5/20)
Length of Visible Light 16h 03m
Length of Day
14h 55m
Waxing Gibbous, 75% of the Moon is Illuminated
May 20
Waxing Gibbous
May 24
Full
May 31
Last Quarter
Jun 8
New
Jun 16
First Quarter

Hourly Weather History & Observations

Time (CDT) Temp. Dew Point Humidity Pressure Visibility Wind Dir Wind Speed Gust Speed Precip Events Conditions
12:21 AM 64.4 °F 62.6 °F 94% 29.63 in 6.0 mi Calm Calm - 0.03 in Rain , Thunderstorm Light Rain
12:53 AM 64.0 °F 62.1 °F 93% 29.65 in 4.0 mi ESE 16.1 mph 19.6 mph 0.22 in Rain , Thunderstorm Rain
1:05 AM 64.4 °F 62.6 °F 94% 29.68 in 6.0 mi SE 9.2 mph - 0.05 in Rain Rain
1:12 AM 64.4 °F 62.6 °F 94% 29.69 in 8.0 mi SSE 8.1 mph - 0.06 in Rain , Thunderstorm Rain
1:41 AM 64.4 °F 62.6 °F 94% 29.66 in 7.0 mi WNW 4.6 mph - 0.15 in Rain Light Rain
1:50 AM 64.4 °F 62.6 °F 94% 29.65 in 10.0 mi NW 4.6 mph - 0.16 in Rain Light Rain
1:53 AM 64.0 °F 62.1 °F 93% 29.63 in 10.0 mi NW 4.6 mph - 0.16 in Rain Light Rain
2:15 AM 64.4 °F 62.6 °F 94% 29.61 in 10.0 mi NE 3.5 mph - 0.00 in   Scattered Clouds
3:30 AM 62.6 °F 60.8 °F 94% 29.59 in 10.0 mi SE 8.1 mph - N/A   Partly Cloudy
3:44 AM 62.6 °F 60.8 °F 94% 29.60 in 10.0 mi SSE 5.8 mph - N/A   Mostly Cloudy
3:53 AM 64.0 °F 61.0 °F 90% 29.58 in 10.0 mi SSE 11.5 mph - N/A   Overcast
4:53 AM 64.0 °F 61.0 °F 90% 29.55 in 10.0 mi SSE 9.2 mph - N/A   Mostly Cloudy
5:02 AM 64.4 °F 60.8 °F 88% 29.57 in 10.0 mi SSE 8.1 mph - N/A   Mostly Cloudy
6:53 AM 64.0 °F 61.0 °F 90% 29.60 in 10.0 mi SSE 9.2 mph - N/A   Partly Cloudy
7:07 AM 64.4 °F 60.8 °F 88% 29.63 in 10.0 mi South 12.7 mph - N/A   Mostly Cloudy
7:53 AM 66.0 °F 61.0 °F 84% 29.61 in 10.0 mi South 12.7 mph - N/A   Scattered Clouds
8:08 AM 64.4 °F 60.8 °F 88% 29.64 in 10.0 mi SSE 9.2 mph - N/A   Mostly Cloudy
9:37 AM 68.0 °F 60.8 °F 78% 29.64 in 10.0 mi South 12.7 mph - N/A   Mostly Cloudy
9:51 AM 68.0 °F 60.8 °F 78% 29.63 in 10.0 mi South 13.8 mph - N/A   Overcast
9:53 AM 69.1 °F 60.1 °F 73% 29.61 in 10.0 mi South 11.5 mph - N/A   Overcast
10:19 AM 71.6 °F 60.8 °F 69% 29.63 in 10.0 mi South 10.4 mph - N/A   Mostly Cloudy
10:53 AM 72.0 °F 60.1 °F 66% 29.61 in 10.0 mi SSE 12.7 mph - N/A   Partly Cloudy
11:53 AM 75.9 °F 60.1 °F 58% 29.60 in 10.0 mi South 15.0 mph 24.2 mph N/A   Partly Cloudy
12:53 PM 78.1 °F 59.0 °F 52% 29.60 in 10.0 mi South 18.4 mph - N/A   Mostly Cloudy
1:53 PM 75.9 °F 59.0 °F 56% 29.60 in 10.0 mi South 17.3 mph 24.2 mph N/A   Mostly Cloudy
2:53 PM 77.0 °F 57.0 °F 50% 29.60 in 10.0 mi SSW 20.7 mph 26.5 mph N/A   Mostly Cloudy
3:53 PM 78.1 °F 57.0 °F 48% 29.60 in 10.0 mi SSW 19.6 mph 29.9 mph N/A   Scattered Clouds
4:53 PM 78.1 °F 57.9 °F 50% 29.60 in 10.0 mi SW 18.4 mph 26.5 mph N/A   Scattered Clouds
5:53 PM 78.1 °F 57.9 °F 50% 29.60 in 10.0 mi SW 16.1 mph - N/A   Partly Cloudy
6:53 PM 77.0 °F 57.9 °F 52% 29.60 in 10.0 mi SW 9.2 mph - N/A   Clear
7:53 PM 73.9 °F 59.0 °F 59% 29.60 in 10.0 mi SW 5.8 mph - N/A   Clear
9:53 PM 69.1 °F 62.1 °F 78% 29.59 in 6.0 mi East 5.8 mph - 0.01 in Rain Rain
10:53 PM 66.9 °F 63.0 °F 87% 29.53 in 10.0 mi East 4.6 mph - 0.03 in   Overcast
11:33 PM 66.2 °F 62.6 °F 88% 29.58 in 10.0 mi Calm Calm - 0.00 in Thunderstorm Mostly Cloudy
11:53 PM 66.0 °F 62.1 °F 87% 29.57 in 7.0 mi SSW 19.6 mph 26.5 mph 0.01 in Rain , Thunderstorm Rain